TimeMST,TemperatureF,Dew PointF,Humidity,Sea Level PressureIn,VisibilityMPH,Wind Direction,Wind SpeedMPH,Gust SpeedMPH,PrecipitationIn,Events,Conditions,WindDirDegrees,DateUTC
12:53 AM,-0.9,-6.0,79,29.90,3.0,North,11.5,-,N/A,,Haze,350,2013-01-12 07:53:00
1:53 AM,-2.9,-7.1,82,29.95,9.0,West,3.5,-,N/A,,Clear,280,2013-01-12 08:53:00
2:53 AM,-4.0,-8.0,83,29.98,9.0,NNW,4.6,-,N/A,,Clear,340,2013-01-12 09:53:00
3:53 AM,-5.1,-9.0,83,29.97,10.0,North,8.1,-,N/A,,Clear,360,2013-01-12 10:53:00
4:53 AM,-7.1,-9.9,87,30.00,10.0,North,6.9,-,N/A,,Clear,10,2013-01-12 11:53:00
5:53 AM,-8.0,-11.9,83,30.02,10.0,NNE,5.8,-,N/A,,Clear,20,2013-01-12 12:53:00
6:53 AM,-11.9,-15.0,86,30.10,10.0,ENE,5.8,-,N/A,,Clear,60,2013-01-12 13:53:00
7:53 AM,-9.0,-13.0,83,30.09,10.0,North,5.8,-,N/A,,Clear,10,2013-01-12 14:53:00
8:53 AM,-8.0,-11.0,86,30.12,10.0,Calm,Calm,-,N/A,,Clear,0,2013-01-12 15:53:00
9:53 AM,-7.1,-9.9,87,30.11,10.0,SE,3.5,-,N/A,,Clear,140,2013-01-12 16:53:00
10:42 AM,-4.0,-9.4,78,29.80,5.0,East,4.6,-,N/A,,Haze,90,2013-01-12 17:42:00
10:53 AM,-2.9,-8.0,79,30.12,5.0,East,3.5,-,N/A,,Haze,90,2013-01-12 17:53:00
11:53 AM,-0.0,-8.0,69,30.09,10.0,NNE,4.6,-,N/A,,Clear,20,2013-01-12 18:53:00
12:53 PM,-0.0,-7.1,72,30.09,10.0,North,5.8,-,N/A,,Clear,360,2013-01-12 19:53:00
1:53 PM,-0.0,-6.0,76,30.10,10.0,North,10.4,-,N/A,,Clear,360,2013-01-12 20:53:00
2:53 PM,-0.0,-6.0,76,30.12,10.0,NNE,5.8,-,N/A,,Overcast,20,2013-01-12 21:53:00
3:53 PM,-0.0,-6.0,76,30.13,10.0,Calm,Calm,-,N/A,,Overcast,0,2013-01-12 22:53:00
4:53 PM,-2.9,-8.0,79,30.16,10.0,Calm,Calm,-,N/A,,Clear,0,2013-01-12 23:53:00
6:53 PM,-2.0,-6.0,83,30.19,8.0,SSW,4.6,-,N/A,,Overcast,200,2013-01-13 01:53:00
7:39 PM,-2.2,-5.8,85,29.79,10.0,Calm,Calm,-,N/A,,Overcast,0,2013-01-13 02:39:00
7:53 PM,-2.9,-6.0,87,30.18,10.0,Calm,Calm,-,N/A,,Overcast,0,2013-01-13 02:53:00
8:22 PM,-2.2,-7.6,78,29.78,10.0,SSW,3.5,-,N/A,,Overcast,210,2013-01-13 03:22:00
8:53 PM,-2.9,-7.1,82,30.18,10.0,Calm,Calm,-,N/A,,Overcast,0,2013-01-13 03:53:00
9:53 PM,-2.9,-6.0,87,30.17,8.0,Calm,Calm,-,N/A,,Overcast,0,2013-01-13 04:53:00
10:53 PM,-2.0,-6.0,83,30.16,3.0,Calm,Calm,-,0.00,Snow,Light Snow,0,2013-01-13 05:53:00
11:53 PM,-2.9,-6.0,87,30.15,4.0,Calm,Calm,-,0.00,,Overcast,0,2013-01-13 06:53:00